SL-16 R/B (17590 NORAD) Tracking and Keplerian Element Data

This shows tracking and keplerian element data for the satellite.

Feedback or suggestion? Click here.




ElementValue
Catalog17590
NameSL-16 R/B
Epoch Orbit90390
Epoch Day12.76064652
Epoch Year2024
RAAN134.4499
Inclination71.0032
Eccentricity0.0007301
Argument of Perigee251.2291
Mean Anonmoly108.8041
Mean Motion14.16937013
Decay Rate-1.38E-06
L11 17590U 87027B 24012.76064652 -.00000138 00000+0 -44850-4 0 9999
L22 17590 71.0032 134.4499 0007301 251.2291 108.8041 14.16937013903902



Live tracking and technical data element details for SL-16 R/B (NORAD 17590). SL-16 R/B can be tracked NOW for your location showing map with azimuth and elevation plus other details from your city location.







IsCatalogInMostPopularTable: catalog: 17590, numindb: 355
Update: records affected: 1



GetName: 17590 SL-16 R/B

Hit Count: updated at: Fri, 19 Apr 2024 12:02:03 GMT